Presure
256 261 265 269 276 280 291 292 292 295 302 334 265 105 150 355 159 180 163 155 145 143 147 143 151 131 151 150 152 123 199 128 85 135 125 130 198 184 137 105 128 95 151 160
272 268 278 276 273 283 287 305 355 360 350 343 237 371 218 328 146 145 141 151 161 142 141 142 125 139 91 157 129 149 129 141 118 110 120 150 117 141 146 148 143 172 91 132
273 266 260 272 291 371 401 383 360 379 386 364 264 261 84 82 107 144 137 117 157 85 147 149 152 147 140 137 139 140 138 146 134 118 133 133 117 104 134 133 140 211 163 149
274 285 355 375 362 378 361 360 355 364 387 359 258 150 127 141 150 164 141 134 150 159 142 134 147 134 133 130 135 136 132 133 142 126 131 128 136 142 136 182 194 153 135 179
371 366 356 350 347 349 350 330 333 329 140 154 245 135 131 136 133 143 85 112 147 164 156 152 134 133 134 140 141 142 140 135 139 145 147 130 136 139 135 135 141 138 126 131
335 331 332 324 319 292 311 302 249 262 147 154 149 142 151 101 152 150 167 175 170 142 138 133 128 136 131 135 135 141 137 140 137 141 123 146 149 143 125 162 139 132 163 141
323 263 300 302 304 295 292 297 286 289 223 288 245 231 138 149 259 151 142 142 133 131 137 126 135 160 147 150 134 143 144 138 138 139 137 139 141 141 140 138 108 136 135 103
296 254 289 289 282 287 279 160 267 177 133 191 300 300 307 158 135 134 140 136 138 141 148 167 153 144 143 143 143 143 142 142 144 141 140 139 122 123 127 127 125 128 134 142
190 167 267 237 268 144 138 280 281 292 291 188 142 131 139 133 140 145 154 160 160 158 149 133 156 151 148 153 150 148 145 145 146 306 140 140 271 148 135 127 128 128 143 134
205 155 155 156 155 155 158 147 132 138 150 137 136 193 152 273 276 277 287 300 312 248 251 154 210 249 130 162 215 217 218 145 194 196 171 230 143 123 285 204 228 267 180 179
129 225 261 227 259 173 136 152 193 139 269 240 170 225 275 271 228 140 121 206 230 296 254 305 310 281 272 281 163 162 187 300 299 292 295 303 314 274 171 172 188 312 266 158
255 168 173 158 287 286 277 288 266 272 172 158 279 274 244 273 108 121 150 268 270 264 143 296 298 126 260 260 261 263 263 266 277 278 236 161 276 275 290 289 288 290 294 291
222 165 241 249 256 218 288 285 188 256 284 176 171 280 255 261 140 153 174 243 261 274 251 270 230 268 289 287 250 246 246 254 260 262 263 260 264 272 268 264 266 272 261 258
236 235 147 238 198 244 244 202 283 214 215 272 252 264 201 259 149 131 137 251 237 259 243 249 249 259 266 262 279 271 229 232 233 235 270 265 261 266 252 263 260 261 233 210
195 184 168 164 161 173 220 226 217 165 250 269 261 234 138 260 237 196 260 253 274 258 216 257 233 253 225 229 238 247 235 243 255 249 246 252 239 239 238 252 238 175 172 171
181 152 184 123 172 167 159 208 169 209 200 163 154 167 138 153 120 145 143 251 244 276 240 260 250 231 231 246 161 231 227 232 237 233 244 238 239 248 236 245 250 246 97 225
186 196 209 195 207 204 183 178 177 170 157 169 178 159 170 222 225 185 242 207 253 255 139 241 255 123 197 253 118 126 247 250 182 123 218 238 240 227 212 240 238 246 189 239
195 199 195 198 197 211 218 212 213 196 182 192 189 197 192 203 216 199 216 179 191 235 242 200 142 201 244 130 140 239 133 188 140 252 185 140 231 152 196 213 191 189 227 159
222 227 213 208 209 205 196 199 201 195 206 201 202 207 175 195 177 173 176 170 170 173 197 143 177 213 200 185 134 125 139 184 131 129 144 135 151 155 133 144 136 147 159 159
201 149 235 232 232 235 242 238 213 206 201 174 199 204 198 198 175 205 205 204 189 185 181 157 199 154 197 147 152 152 137 155 150 143 158 131 166 205 128 175 131 164 219 152
135 187 209 214 220 230 238 237 240 236 242 241 239 218 204 207 189 200 201 199 201 204 205 205 205 189 210 197 185 185 156 135 134 131 134 191 135 185 160 148 209 200 226 135
254 241 235 231 210 211 229 223 232 237 239 233 232 236 236 238 243 244 228 230 202 245 227 202 198 200 199 203 204 206 203 193 207 184 213 211 208 206 174 207 184 205 203 191
270 256 245 246 245 233 221 210 212 213 219 237 240 231 233 232 233 232 233 232 234 237 238 236 243 244 236 234 231 232 229 232 236 231 228 228 226 216 231 214 213 234 210 160
309 292 242 250 198 245 233 246 244 237 208 205 210 211 211 230 231 225 225 232 236 233 231 233 232 233 234 233 231 230 231 226 232 226 243 227 225 226 227 218 231 219 219 184
252 277 326 232 233 271 254 262 186 217 243 241 240 203 198 199 205 218 229 232 231 236 236 229 226 232 226 226 234 233 231 236 223 224 221 214 223 246 236 212 218 223 227 241
194 201 235 216 218 283 284 320 313 302 270 150 154 253 151 185 199 204 192 193 203 218 227 228 228 219 230 229 234 230 225 231 223 223 224 215 210 211 215 232 180 220 220 170
Wind_Speed
81 80 80 80 78 79 82 82 84 89 90 85 62 28 55 81 49 52 44 55 57 57 58 57 54 54 49 51 52 41 66 45 17 32 44 46 50 54 34 43 47 42 53 57
75 73 83 72 67 74 73 73 69 66 65 67 54 65 49 61 46 45 49 53 54 58 58 55 47 54 19 49 42 41 48 37 44 53 52 46 48 43 46 55 40 52 34 42
68 61 56 60 70 43 28 31 42 34 29 32 35 36 18 9 32 47 43 27 50 19 55 53 48 47 38 41 43 39 41 38 45 61 38 42 53 45 61 49 43 56 53 54
53 60 27 6 12 4 6 13 19 24 21 10 13 44 40 42 43 43 44 45 48 47 55 47 48 45 43 45 48 50 47 49 46 55 47 49 48 50 43 61 59 49 47 55
16 13 12 10 5 13 13 10 26 18 37 34 8 37 42 44 41 40 18 36 45 46 49 49 47 47 47 47 48 53 47 45 47 48 44 53 46 51 47 47 49 46 51 51
13 16 18 17 23 3 24 19 8 1 32 34 36 37 40 27 39 37 42 43 45 46 44 46 45 47 51 51 52 55 54 48 47 51 43 53 53 54 51 61 53 52 57 53
20 16 24 25 28 22 20 21 10 14 9 16 1 3 36 37 6 38 39 43 45 46 46 48 50 54 52 54 54 55 55 54 54 54 53 54 54 54 55 55 46 58 58 57
30 15 25 26 18 18 16 25 11 18 34 17 28 34 41 31 38 37 41 40 43 47 49 51 52 52 53 54 56 59 60 60 60 58 59 58 54 55 56 59 60 61 63 66
11 7 19 19 16 21 25 16 16 25 28 19 33 34 37 39 41 43 45 47 49 51 50 40 56 53 55 60 60 62 63 64 63 30 63 64 50 64 62 63 63 66 69 70
13 11 13 15 17 18 20 24 29 31 29 35 36 10 39 35 39 36 45 39 37 4 5 44 23 26 51 43 31 34 39 66 45 46 58 43 67 63 45 56 63 58 73 74
17 15 22 8 12 16 29 28 16 35 21 20 25 5 25 28 6 38 29 6 17 38 11 30 26 15 16 12 65 65 53 10 10 14 14 15 19 35 62 65 63 45 56 76
49 2 1 14 22 27 25 20 20 19 20 28 13 22 19 26 16 32 40 33 29 22 44 35 26 32 15 16 16 13 10 9 9 11 30 67 18 21 20 22 27 31 33 40
35 3 39 45 48 23 31 25 6 23 18 22 22 23 7 23 12 30 22 21 29 28 15 30 3 16 20 10 20 22 22 14 12 9 10 16 16 16 21 26 30 33 39 44
40 39 3 39 18 43 42 11 13 4 7 29 22 29 13 11 29 23 39 19 18 21 11 19 12 14 21 14 14 6 28 27 27 28 1 9 14 16 25 24 29 33 47 61
15 10 5 7 10 7 28 33 28 14 39 39 23 13 19 30 22 4 27 23 16 5 0 19 6 13 7 5 9 10 11 7 5 14 17 21 28 30 31 28 39 48 49 51
10 6 12 15 11 9 12 16 6 16 13 16 17 12 35 20 35 19 29 26 24 11 3 16 11 3 7 7 23 16 17 19 20 26 16 22 26 28 34 35 39 41 40 52
13 13 14 12 15 12 10 7 7 11 19 15 13 20 15 24 26 9 28 7 23 19 27 11 8 36 17 12 34 29 21 24 25 36 36 31 33 38 45 37 37 44 54 54
14 15 15 15 14 14 15 14 16 11 10 9 10 10 13 9 13 8 15 12 12 19 16 9 31 14 7 32 30 8 30 25 32 36 30 32 34 26 34 42 45 48 57 46
21 20 19 18 18 17 18 19 17 14 16 12 8 10 14 12 15 16 16 17 18 16 8 38 15 4 9 14 32 33 38 26 37 41 33 43 30 32 52 40 49 43 45 47
22 25 23 23 22 20 18 16 21 21 21 19 24 24 20 16 18 13 13 14 18 19 20 29 12 35 16 39 29 36 35 33 37 36 37 41 40 42 55 47 55 51 58 61
24 25 26 25 25 25 25 23 21 18 17 15 14 21 28 20 25 25 24 23 22 21 21 20 21 27 22 27 33 34 42 42 44 48 49 44 56 49 51 56 56 59 67 62
23 26 26 25 29 25 23 25 26 26 24 22 22 21 19 17 14 14 21 22 32 22 25 31 31 31 31 33 35 35 37 42 42 47 46 47 49 53 57 60 53 68 71 62
27 24 29 29 25 28 25 27 28 26 25 26 24 25 25 25 24 25 25 25 23 22 23 25 25 27 30 31 33 35 36 37 38 42 47 51 54 58 61 66 67 70 79 49
27 25 26 29 38 28 33 33 34 33 35 34 32 31 30 29 31 33 33 32 32 32 32 31 32 31 34 35 37 40 40 43 43 47 44 52 58 62 64 67 73 77 82 72
34 29 18 27 34 38 37 42 41 36 39 41 40 38 39 38 36 37 37 37 37 37 36 37 39 39 42 42 41 42 44 46 49 49 56 61 59 56 66 70 76 75 74 75
31 46 36 39 41 24 26 28 30 34 46 36 39 49 33 45 43 46 47 47 44 42 43 44 43 46 45 45 47 51 53 52 56 59 61 66 64 67 73 68 53 78 84 46
Wind_Direction
263 267 270 272 275 276 276 274 274 272 273 275 264 233 235 268 235 242 216 213 224 225 223 229 225 257 235 237 241 245 254 232 286 247 246 248 251 253 257 259 263 269 267 266
269 271 272 269 270 273 270 269 273 273 272 270 252 275 248 268 235 230 236 224 218 233 237 238 250 252 249 243 249 248 224 237 255 268 253 257 270 267 273 269 273 268 287 266
268 265 264 269 274 278 285 284 277 284 293 286 259 257 260 259 250 232 244 238 225 261 235 236 240 242 245 246 247 248 241 253 240 252 254 262 261 276 270 264 269 257 267 260
266 270 277 286 270 339 292 313 296 306 317 308 239 231 259 251 243 240 235 244 230 227 235 249 238 247 245 247 249 246 244 243 250 245 258 263 274 275 266 255 251 281 268 260
99 97 101 95 95 37 21 43 72 74 241 243 242 243 249 250 252 243 249 250 235 232 232 233 242 246 251 249 252 257 255 253 262 269 273 257 271 276 271 272 279 268 268 269
108 98 86 91 95 129 89 81 115 310 236 237 241 243 241 241 242 245 247 248 243 236 237 240 252 248 254 258 262 263 267 262 263 268 269 270 270 268 269 262 275 269 268 278
86 112 94 102 98 102 94 98 62 43 270 55 82 86 244 241 76 241 238 237 241 246 245 250 254 253 256 257 262 262 265 267 264 263 263 266 268 268 270 271 285 277 277 282
97 103 85 95 84 94 65 229 34 238 243 237 66 60 58 245 246 250 248 250 252 256 255 252 253 255 257 258 258 259 260 261 263 263 263 263 274 272 269 269 272 274 277 279
121 168 88 79 94 239 239 67 49 75 77 244 248 255 253 257 258 258 254 251 252 253 254 258 256 258 256 256 257 258 260 262 264 236 266 267 248 265 267 269 270 270 269 272
82 205 215 224 229 232 237 245 252 251 249 254 254 256 255 69 66 67 67 73 75 96 72 259 250 234 274 269 256 254 253 263 258 258 260 256 266 269 241 258 257 249 264 264
243 54 53 36 49 260 256 256 266 258 42 59 251 189 89 90 106 258 285 343 42 66 84 98 117 163 193 159 257 257 255 158 176 203 211 215 218 241 260 262 260 248 255 264
72 46 77 235 58 61 63 57 63 48 246 246 82 72 65 82 267 288 265 68 69 81 272 82 90 292 198 210 210 199 206 202 193 202 244 256 230 237 234 237 240 243 244 244
66 336 62 65 61 54 53 55 229 68 59 247 252 59 79 62 302 282 254 68 72 72 86 85 38 89 75 143 227 231 235 236 232 224 229 244 245 233 234 241 243 243 243 247
59 58 218 59 46 60 60 50 40 270 63 73 71 68 266 73 257 262 260 80 66 100 62 102 104 84 64 77 55 106 246 249 251 249 234 253 257 253 255 254 254 250 252 256
51 60 259 276 305 308 67 61 57 255 57 62 62 52 268 72 71 325 65 74 73 153 32 134 53 155 234 272 221 188 248 286 314 271 256 246 265 264 262 263 259 277 280 279
29 247 27 292 344 263 291 70 266 57 45 280 288 269 254 288 270 297 268 81 76 118 120 163 186 313 181 209 253 268 269 261 252 267 254 263 258 255 270 266 266 265 296 268
5 11 27 19 22 22 1 337 307 265 283 284 327 294 308 67 58 335 60 34 66 63 273 88 57 264 255 235 269 269 251 249 288 271 256 272 274 269 254 286 286 276 281 272
347 345 344 346 348 7 9 6 1 349 318 313 324 351 334 37 63 18 56 296 319 48 48 291 274 268 254 268 270 273 268 269 272 250 269 272 275 279 276 277 275 277 273 274
343 344 334 336 338 335 328 332 334 322 336 325 325 346 285 308 298 299 305 296 292 291 309 274 284 358 301 279 271 269 279 269 276 279 265 277 273 274 279 273 276 278 282 284
331 309 340 338 339 339 348 340 323 322 322 314 320 322 318 312 301 319 312 301 276 280 280 277 288 272 271 269 280 266 273 264 264 263 272 275 275 277 288 280 298 280 291 293
300 311 321 326 330 337 336 337 338 334 340 338 324 310 308 311 305 306 305 299 297 296 295 291 287 283 290 278 278 281 265 268 274 281 286 280 276 285 285 279 291 287 292 285
333 325 320 319 312 315 329 326 331 330 328 323 322 325 320 315 314 306 301 300 294 297 296 292 291 290 288 285 285 284 284 281 286 283 287 288 291 292 293 294 290 293 293 291
308 315 317 322 326 321 305 300 304 306 312 320 315 311 312 309 308 305 299 293 289 287 286 284 290 287 283 281 279 279 280 280 279 280 281 279 279 285 276 286 287 284 285 282
306 308 301 308 303 317 307 309 308 309 298 299 300 299 298 301 300 299 297 296 295 290 288 284 280 278 278 278 278 278 277 279 278 279 282 277 280 280 279 285 282 283 285 285
354 6 348 294 322 302 312 308 299 304 306 304 300 293 297 295 295 295 293 289 287 286 283 279 280 280 280 280 276 276 275 277 276 278 282 281 280 291 289 286 282 286 288 302
333 341 345 335 339 353 347 343 330 314 295 295 300 297 291 301 294 289 290 291 288 286 283 279 277 282 277 277 279 280 282 283 286 285 285 284 296 292 279 300 302 284 295 298